TimeAKDT,TemperatureF,Dew PointF,Humidity,Sea Level PressureIn,VisibilityMPH,Wind Direction,Wind SpeedMPH,Gust SpeedMPH,PrecipitationIn,Events,Conditions,WindDirDegrees,DateUTC
12:52 AM,42.1,21.9,45,30.13,10.0,NE,4.6,-,N/A,,Clear,40,2013-05-22 08:52:00
1:52 AM,41.0,23.0,49,30.12,10.0,ENE,3.5,-,N/A,,Clear,60,2013-05-22 09:52:00
2:52 AM,33.1,21.9,64,30.12,10.0,NNE,5.8,-,N/A,,Clear,20,2013-05-22 10:52:00
3:52 AM,35.1,25.0,67,30.12,10.0,Calm,Calm,-,N/A,,Clear,0,2013-05-22 11:52:00
4:52 AM,30.9,21.9,69,30.11,10.0,Calm,Calm,-,N/A,,Clear,0,2013-05-22 12:52:00
5:52 AM,34.0,25.0,70,30.09,10.0,Calm,Calm,-,N/A,,Clear,0,2013-05-22 13:52:00
6:52 AM,39.0,25.0,57,30.09,10.0,Calm,Calm,-,N/A,,Mostly Cloudy,0,2013-05-22 14:52:00
7:52 AM,42.1,24.1,49,30.08,10.0,Calm,Calm,-,N/A,,Mostly Cloudy,0,2013-05-22 15:52:00
8:52 AM,48.9,23.0,36,30.08,10.0,ESE,3.5,-,N/A,,Mostly Cloudy,110,2013-05-22 16:52:00
9:52 AM,52.0,24.1,34,30.06,10.0,ESE,6.9,-,N/A,,Mostly Cloudy,120,2013-05-22 17:52:00
10:52 AM,55.0,23.0,29,30.04,10.0,ESE,5.8,-,N/A,,Mostly Cloudy,120,2013-05-22 18:52:00
11:52 AM,59.0,21.9,24,30.03,10.0,SE,6.9,-,N/A,,Clear,130,2013-05-22 19:52:00
12:52 PM,57.9,21.9,25,30.02,10.0,ESE,10.4,-,N/A,,Clear,110,2013-05-22 20:52:00
1:52 PM,57.9,25.0,28,30.01,10.0,ESE,10.4,-,N/A,,Clear,110,2013-05-22 21:52:00
2:52 PM,60.1,24.1,25,30.00,10.0,SE,11.5,-,N/A,,Mostly Cloudy,140,2013-05-22 22:52:00
3:52 PM,61.0,24.1,24,29.99,10.0,SE,11.5,-,N/A,,Overcast,140,2013-05-22 23:52:00
4:52 PM,59.0,23.0,25,29.99,10.0,SE,8.1,-,N/A,,Overcast,140,2013-05-23 00:52:00
5:52 PM,63.0,23.0,22,29.97,10.0,SE,5.8,-,N/A,,Mostly Cloudy,130,2013-05-23 01:52:00
6:52 PM,63.0,23.0,22,29.97,10.0,East,8.1,-,N/A,,Scattered Clouds,90,2013-05-23 02:52:00
7:52 PM,60.1,27.0,28,29.96,10.0,Variable,5.8,-,N/A,,Mostly Cloudy,0,2013-05-23 03:52:00
8:52 PM,59.0,27.0,29,29.96,10.0,WSW,5.8,-,N/A,,Overcast,240,2013-05-23 04:52:00
9:52 PM,51.1,30.9,46,29.98,10.0,West,4.6,-,N/A,,Partly Cloudy,270,2013-05-23 05:52:00
10:52 PM,51.1,32.0,48,30.00,10.0,West,4.6,-,N/A,,Mostly Cloudy,270,2013-05-23 06:52:00
11:52 PM,51.1,33.1,50,30.01,10.0,Calm,Calm,-,N/A,,Overcast,0,2013-05-23 07:52:00